Hourly Data Report for June 27, 2012

All times are specified in Local Standard Time (LST). Add 1 hour to adjust for Daylight Saving Time where and when it is observed.

SAINT JOHN A
NEW BRUNSWICK

45°18'58.000" N
65°53'24.000" W
108.80 m
8104901
71609
YSJ

Download Data

Hourly Data (June 2012)
Hourly Data Report for June 27, 2012
Temp Definition
°C
Dew Point Temp Definition
°C
Rel Hum Definition
%
Wind Dir Definition
10's deg

Wind Spd Definition
km/h
Visibility Definition
km
Stn Press Definition
kPa
Hmdx Definition


Wind Chill Definition


Weather Definition


TIME
00:00 Legend Double Dagger 13.5 13.5 100 18 18 0.8 98.80     Drizzle,Fog
01:00 Legend Double Dagger 14.3 14.3 100 16 14 3.2 98.79     Drizzle,Fog
02:00 Legend Double Dagger 14.4 14.1 98 15 20 10.0 98.75     Cloudy
03:00 Legend Double Dagger 13.6 13.5 99 13 20 4.8 98.74     Fog
04:00 Legend Double Dagger 13.6 13.6 100 14 16 4.8 98.78     Fog
05:00 Legend Double Dagger 14.1 14.0 99 17 17 8.1 98.85     Fog
06:00 Legend Double Dagger 14.4 14.1 98 16 24 10.0 98.87     LegendNANA
07:00 Legend Double Dagger 15.0 14.4 96 16 21 9.7 98.92     Fog
08:00 Legend Double Dagger 14.9 14.1 95 16 21 10.0 98.97     Cloudy
09:00 Legend Double Dagger 15.3 14.0 92 14 22 10.0 98.97     LegendNANA
10:00 Legend Double Dagger 15.4 14.0 91 16 23 10.0 99.01     LegendNANA
11:00 Legend Double Dagger 16.8 15.2 90 17 20 10.0 99.04     Cloudy
12:00 Legend Double Dagger 18.0 14.4 79 19 27 10.0 99.04     LegendNANA
13:00 Legend Double Dagger 19.0 14.3 74 19 32 10.0 98.99     LegendNANA
14:00 Legend Double Dagger 18.9 14.2 74 21 33 10.0 98.97     Mostly Cloudy
15:00 Legend Double Dagger 18.0 14.0 77 21 26 10.0 98.94     LegendNANA
16:00 Legend Double Dagger 15.6 13.3 86 21 28 10.0 98.95     LegendNANA
17:00 Legend Double Dagger 14.6 13.7 94 20 23 10.0 98.96     Rain Showers
18:00 Legend Double Dagger 14.2 13.6 96 19 21 8.1 98.97     Rain Showers,Fog
19:00 Legend Double Dagger 13.8 13.5 98 19 22 6.4 98.97     Rain Showers,Fog
20:00 Legend Double Dagger 14.1 14.0 99 19 26 4.8 98.95     Rain Showers,Fog
21:00 Legend Double Dagger 14.0 13.9 99 19 25 4.8 98.94     Rain Showers,Fog
22:00 Legend Double Dagger 13.4 13.4 100 20 26 4.8 98.96     Rain Showers,Fog
23:00 Legend Double Dagger 13.2 13.2 100 19 17 4.0 98.94     Rain Showers,Fog

Notes on Data Quality.

Legend

  • E = Estimated
  • M = Missing
  • NA = Not Available
  • ‡ = Partner data that is not subject to review by the National Climate Archives
Date modified: